Stündliche Wetter Kyzylsay

Heute, 10 Mai, Montag

Zeit Temperatur Niederschläge Wind Luftdruck Luftfeuchtigkeit
00:00 +22°C° 0 mm 4 m/S 737 mmHg 29%
01:00 +21°C° 0 mm 4 m/S 737 mmHg 29%
02:00 +21°C° 0 mm 4 m/S 737 mmHg 30%
03:00 +20°C° 0 mm 4 m/S 737 mmHg 30%
04:00 +20°C° 0 mm 4 m/S 737 mmHg 31%
05:00 +20°C° 0 mm 5 m/S 737 mmHg 31%
06:00 +20°C° 0 mm 5 m/S 738 mmHg 31%
07:00 +20°C° 0 mm 5 m/S 738 mmHg 31%
08:00 +21°C° 0 mm 5 m/S 738 mmHg 33%
09:00 +22°C° 0 mm 5 m/S 738 mmHg 35%
10:00 +22°C° 0 mm 5 m/S 739 mmHg 41%
11:00 +21°C° 0.6 mm 5 m/S 739 mmHg 50%
12:00 +19°C° 0.6 mm 6 m/S 739 mmHg 59%
13:00 +17°C° 0.6 mm 6 m/S 739 mmHg 68%
14:00 +17°C° 0 mm 7 m/S 740 mmHg 65%
15:00 +16°C° 0 mm 7 m/S 740 mmHg 62%
16:00 +16°C° 0 mm 8 m/S 740 mmHg 59%
17:00 +15°C° 0 mm 8 m/S 741 mmHg 62%
18:00 +13°C° 0 mm 8 m/S 741 mmHg 64%
19:00 +12°C° 0 mm 9 m/S 742 mmHg 67%
20:00 +11°C° 0 mm 8 m/S 742 mmHg 66%
21:00 +11°C° 0 mm 8 m/S 742 mmHg 66%
22:00 +11°C° 0 mm 7 m/S 742 mmHg 66%
23:00 +11°C° 0 mm 7 m/S 743 mmHg 66%

Morgen, 11 Mai, Dienstag

Zeit Temperatur Niederschläge Wind Luftdruck Luftfeuchtigkeit
00:00 +11°C° 0 mm 6 m/S 743 mmHg 66%
01:00 +11°C° 0 mm 6 m/S 743 mmHg 65%
02:00 +11°C° 0 mm 6 m/S 743 mmHg 65%
03:00 +11°C° 0 mm 6 m/S 743 mmHg 65%
04:00 +11°C° 0 mm 6 m/S 743 mmHg 65%
05:00 +11°C° 0.1 mm 6 m/S 743 mmHg 64%
06:00 +11°C° 0.1 mm 6 m/S 743 mmHg 64%
07:00 +11°C° 0.1 mm 7 m/S 743 mmHg 63%
08:00 +13°C° 0 mm 6 m/S 743 mmHg 60%
09:00 +14°C° 0 mm 6 m/S 743 mmHg 58%
10:00 +15°C° 0 mm 5 m/S 743 mmHg 55%
11:00 +17°C° 0.1 mm 5 m/S 743 mmHg 52%
12:00 +20°C° 0.1 mm 4 m/S 742 mmHg 49%
13:00 +21°C° 0.1 mm 3 m/S 742 mmHg 46%
14:00 +22°C° 0.1 mm 3 m/S 742 mmHg 45%
15:00 +24°C° 0.1 mm 3 m/S 741 mmHg 43%
16:00 +25°C° 0.1 mm 3 m/S 741 mmHg 41%
17:00 +25°C° 0 mm 4 m/S 741 mmHg 41%
18:00 +25°C° 0 mm 4 m/S 740 mmHg 41%
19:00 +25°C° 0 mm 4 m/S 740 mmHg 40%
20:00 +22°C° 0 mm 5 m/S 740 mmHg 46%
21:00 +20°C° 0 mm 5 m/S 741 mmHg 52%
22:00 +17°C° 0 mm 6 m/S 741 mmHg 58%
23:00 +17°C° 0 mm 4 m/S 741 mmHg 60%

übermorgen, 12 Mai, Mittwoch

Zeit Temperatur Niederschläge Wind Luftdruck Luftfeuchtigkeit
00:00 +16°C° 0 mm 3 m/S 741 mmHg 62%
01:00 +16°C° 0 mm 2 m/S 741 mmHg 64%
02:00 +16°C° 0 mm 2 m/S 741 mmHg 64%
03:00 +16°C° 0 mm 2 m/S 741 mmHg 64%
04:00 +15°C° 0 mm 2 m/S 741 mmHg 64%
05:00 +16°C° 0 mm 2 m/S 741 mmHg 62%
06:00 +17°C° 0 mm 2 m/S 741 mmHg 59%
07:00 +18°C° 0 mm 2 m/S 741 mmHg 56%
08:00 +19°C° 0.2 mm 3 m/S 741 mmHg 51%
09:00 +21°C° 0.2 mm 3 m/S 741 mmHg 47%
10:00 +23°C° 0.2 mm 4 m/S 741 mmHg 42%
11:00 +25°C° 0.1 mm 4 m/S 741 mmHg 38%
12:00 +27°C° 0.1 mm 4 m/S 741 mmHg 34%
13:00 +28°C° 0.1 mm 5 m/S 742 mmHg 29%
14:00 +30°C° 0 mm 6 m/S 741 mmHg 26%
15:00 +32°C° 0 mm 6 m/S 741 mmHg 23%
16:00 +33°C° 0 mm 7 m/S 741 mmHg 19%
17:00 +33°C° 0 mm 7 m/S 741 mmHg 19%
18:00 +32°C° 0 mm 8 m/S 741 mmHg 18%
19:00 +31°C° 0 mm 8 m/S 741 mmHg 17%
20:00 +29°C° 0 mm 8 m/S 741 mmHg 21%
21:00 +28°C° 0 mm 8 m/S 741 mmHg 25%
22:00 +27°C° 0 mm 9 m/S 741 mmHg 29%
23:00 +26°C° 0 mm 9 m/S 741 mmHg 32%

13 Mai, Donnerstag

Zeit Temperatur Niederschläge Wind Luftdruck Luftfeuchtigkeit
00:00 +23°C° 0 mm 9 m/S 741 mmHg 34%
01:00 +22°C° 0 mm 8 m/S 741 mmHg 37%
02:00 +22°C° 0 mm 8 m/S 741 mmHg 37%
03:00 +21°C° 0 mm 7 m/S 741 mmHg 38%
04:00 +20°C° 0 mm 6 m/S 741 mmHg 38%
05:00 +21°C° 0 mm 6 m/S 741 mmHg 36%
06:00 +21°C° 0 mm 6 m/S 742 mmHg 35%
07:00 +22°C° 0 mm 6 m/S 742 mmHg 33%
08:00 +24°C° 0 mm 7 m/S 742 mmHg 29%
09:00 +27°C° 0 mm 7 m/S 742 mmHg 26%
10:00 +29°C° 0 mm 8 m/S 742 mmHg 22%
11:00 +30°C° 0 mm 7 m/S 742 mmHg 21%
12:00 +32°C° 0 mm 7 m/S 742 mmHg 19%
13:00 +33°C° 0 mm 6 m/S 742 mmHg 18%
14:00 +33°C° 0 mm 6 m/S 742 mmHg 16%
15:00 +34°C° 0 mm 6 m/S 742 mmHg 14%
16:00 +34°C° 0 mm 6 m/S 742 mmHg 13%
17:00 +34°C° 0 mm 6 m/S 742 mmHg 13%
18:00 +33°C° 0 mm 6 m/S 742 mmHg 13%
19:00 +32°C° 0 mm 6 m/S 742 mmHg 13%
20:00 +30°C° 0 mm 7 m/S 742 mmHg 13%
21:00 +29°C° 0 mm 8 m/S 742 mmHg 13%
22:00 +27°C° 0 mm 9 m/S 743 mmHg 13%
23:00 +26°C° 0 mm 9 m/S 743 mmHg 16%

14 Mai, Freitag

Zeit Temperatur Niederschläge Wind Luftdruck Luftfeuchtigkeit
00:00 +23°C° 0 mm 8 m/S 743 mmHg 19%
01:00 +22°C° 0 mm 8 m/S 743 mmHg 22%
02:00 +21°C° 0 mm 7 m/S 743 mmHg 23%
03:00 +21°C° 0 mm 7 m/S 743 mmHg 23%
04:00 +20°C° 0 mm 6 m/S 743 mmHg 23%
05:00 +20°C° 0 mm 6 m/S 743 mmHg 23%
06:00 +21°C° 0 mm 6 m/S 744 mmHg 22%
07:00 +21°C° 0 mm 6 m/S 744 mmHg 21%
08:00 +23°C° 0 mm 7 m/S 744 mmHg 18%
09:00 +26°C° 0 mm 8 m/S 744 mmHg 15%
10:00 +28°C° 0 mm 8 m/S 745 mmHg 12%
11:00 +29°C° 0 mm 8 m/S 744 mmHg 11%
12:00 +31°C° 0 mm 8 m/S 744 mmHg 10%
13:00 +32°C° 0 mm 7 m/S 744 mmHg 8%
14:00 +33°C° 0 mm 7 m/S 744 mmHg 8%
15:00 +33°C° 0 mm 7 m/S 744 mmHg 8%
16:00 +33°C° 0 mm 6 m/S 743 mmHg 8%
17:00 +33°C° 0 mm 6 m/S 743 mmHg 9%
18:00 +32°C° 0 mm 6 m/S 743 mmHg 11%
19:00 +32°C° 0 mm 5 m/S 743 mmHg 12%
20:00 +30°C° 0 mm 6 m/S 743 mmHg 14%
21:00 +28°C° 0 mm 6 m/S 743 mmHg 17%
22:00 +27°C° 0 mm 7 m/S 743 mmHg 20%
23:00 +26°C° 0 mm 7 m/S 743 mmHg 24%

15 Mai, Samstag

Zeit Temperatur Niederschläge Wind Luftdruck Luftfeuchtigkeit
00:00 +24°C° 0 mm 7 m/S 743 mmHg 28%
01:00 +23°C° 0 mm 7 m/S 743 mmHg 33%
02:00 +22°C° 0 mm 6 m/S 743 mmHg 34%
03:00 +21°C° 0 mm 5 m/S 743 mmHg 36%
04:00 +20°C° 0 mm 5 m/S 743 mmHg 38%
05:00 +21°C° 0 mm 5 m/S 743 mmHg 37%
06:00 +21°C° 0 mm 5 m/S 743 mmHg 36%
07:00 +22°C° 0 mm 5 m/S 743 mmHg 36%
08:00 +24°C° 0 mm 6 m/S 743 mmHg 31%
09:00 +26°C° 0 mm 7 m/S 743 mmHg 27%
10:00 +28°C° 0 mm 8 m/S 743 mmHg 23%
11:00 +29°C° 0 mm 8 m/S 743 mmHg 21%
12:00 +30°C° 0 mm 7 m/S 743 mmHg 20%
13:00 +32°C° 0 mm 7 m/S 742 mmHg 19%
14:00 +32°C° 0 mm 7 m/S 742 mmHg 18%
15:00 +32°C° 0 mm 7 m/S 742 mmHg 17%
16:00 +33°C° 0 mm 7 m/S 742 mmHg 16%
17:00 +32°C° 0 mm 7 m/S 742 mmHg 16%
18:00 +32°C° 0 mm 6 m/S 742 mmHg 16%
19:00 +30°C° 0 mm 6 m/S 741 mmHg 17%
20:00 +29°C° 0 mm 6 m/S 742 mmHg 19%
21:00 +28°C° 0 mm 6 m/S 742 mmHg 21%
22:00 +27°C° 0 mm 6 m/S 742 mmHg 23%
23:00 +26°C° 0 mm 5 m/S 742 mmHg 25%
Mehr zeigen

Wir brauchen deine Erlaubnis

Meteoprog und unser Service Anbieter werden persönliche Daten aufbewahren, so wie Cookies, Geräte Bezeichnung oder ähnliche Technologien von deinem Gerät und Prozess, so wie Persönliche Daten Inhalte und Werbungen, genauso wie social Media und den Verkehr zu analysieren.

  • Aufbewahrung und/oder Zugang zu deiner Geräte Informationen.

    Cookies, Geräte Bezeichnung oder andere Informationen, können aufbewahrt oder Zugang zu deinem Gerät erhalten, für den Grund, der oben angegeben wird.

  • Personalisierte Werbung und Inhalte, Messungen, Einblick in das Publikum und Produkt Entwicklung.

    Werbungen und Inhalte können personalisiert werden, basierend auf ein Profil. Mehr Daten können besser personalisierte Werbungen und Inhalte hinzufügen. Werbung und Inhalte können gezeigt und gemessen werden. Einblicke über das Publikum, welche die Werbung gesehen haben und den Inhalt, können abgeleitet werden. So wie Daten können genutzt werden, um es zu verbessern oder die Benutzer Erfahrung zu verbessern das System und die Software.

Wenn du “Ich stimme zu” klickst, erlaubst du uns, die Cookies zu benutzen die Geräte Bezeichnung, den Web oder ähnliche Technologien zu benutzen. Deine Settings, können in deinem Gerät bei deinem Browser geändert werden.

Für den bestimmten Zweck, berechtigten Interessen beruhen darauf, mehr als auf den Inhalt. Du kannst mehr darüber in unseren Privaten und Cookie Politik lesen.